Location: Milton Keynes
(52.0316°N, 0.7531°W)
Time: 23:51:11
(UTC+00:00)

Genesis I - Visible Passes

Search period start: 23 January 2019 00:00
Search period end: 02 February 2019 00:00
Orbit: 476 x 550 km, 64.5° (Epoch: 22 January)

Date Brightness Start Highest point End Pass type
(mag) Time Alt. Az. Time Alt. Az. Time Alt. Az.
23 Jan 4.8 05:05:51 29° SSE 05:06:58 35° ESE 05:10:44 10° ENE visible
23 Jan 3.7 06:40:50 11° WSW 06:44:34 42° NW 06:48:32 10° NE visible
24 Jan 4.7 04:50:32 35° ESE 04:50:32 35° ESE 04:54:10 10° NE visible
24 Jan 3.7 06:25:30 20° W 06:28:00 42° NW 06:31:58 10° NE visible
25 Jan 5.2 04:35:00 29° E 04:35:00 29° E 04:37:36 10° NE visible
25 Jan 3.8 06:09:58 30° W 06:11:26 42° NW 06:15:23 10° NE visible
26 Jan 5.7 04:19:20 21° ENE 04:19:20 21° ENE 04:21:02 10° NE visible
26 Jan 3.7 05:54:17 39° WNW 05:54:52 42° NW 05:58:49 10° NE visible
27 Jan 6.2 04:03:33 15° ENE 04:03:33 15° ENE 04:04:28 10° NE visible
27 Jan 3.8 05:38:30 41° NNW 05:38:30 41° NNW 05:42:14 10° NE visible
28 Jan 6.6 03:47:40 11° ENE 03:47:40 11° ENE 03:47:53 10° NE visible
28 Jan 4.2 05:22:36 36° N 05:22:36 36° N 05:25:40 10° NE visible
28 Jan 5.1 06:57:35 10° WNW 07:00:21 17° NNW 07:03:07 10° NNE visible
29 Jan 4.7 05:06:40 29° N 05:06:40 29° N 05:09:06 10° NE visible
29 Jan 5.2 06:41:36 12° NW 06:43:46 17° NNW 06:46:33 10° NNE visible
30 Jan 5.2 04:50:40 23° NNE 04:50:40 23° NNE 04:52:31 10° NE visible
30 Jan 5.2 06:25:35 14° NW 06:27:12 17° NNW 06:29:59 10° NNE visible
31 Jan 5.6 04:34:36 19° NNE 04:34:36 19° NNE 04:35:56 10° NE visible
31 Jan 5.2 06:09:32 16° NW 06:10:38 17° NNW 06:13:24 10° NNE visible
01 Feb 6.0 04:18:31 15° NNE 04:18:31 15° NNE 04:19:22 10° NE visible
01 Feb 5.2 05:53:27 16° NNW 05:54:04 17° NNW 05:56:49 10° NNE visible
